Regional Weather Roundup
Issued by NWS Charleston, SC

Current Version | Previous Version | Graphics & Text | Print | Product List | Glossary On
Versions: 1 2 3 4 5 6 7 8 9 10 11 12 13 14 15 16 17 18 19 20 21 22 23 24 25 26 27 28 29 30 31 32 33 34 35 36 37 38 39 40 41 42 43 44 45 46 47 48 49 50
000
ASUS42 KCHS 302325
RWRCHS

REGIONAL WEATHER ROUNDUP
NATIONAL WEATHER SERVICE CHARLESTON SC
700 PM EDT THU OCT 30 2014

NOTE: "FAIR" INDICATES FEW OR NO CLOUDS BELOW 12,000 FEET WITH NO
SIGNIFICANT WEATHER AND/OR OBSTRUCTIONS TO VISIBILITY.

NOT ALL STATIONS ARE QUALITY CONTROLLED BY THE NATIONAL
WEATHER SERVICE. USE DATA WITH CAUTION...ESPECIALLY
DEWPOINT OBSERVATIONS.

SCZ027-030-031-034>040-042>050-310000-
...SOUTH CAROLINA...

CITY           SKY/WX    TMP DP  RH WIND       PRES   REMARKS
N CHARLESTON   PTCLDY    62  55  77 NE6       29.94S
WATERFRONT PRK   N/A     64 N/A N/A E10         N/A
FORT JOHNSON   NOT AVBL
JOHNS ISLAND   CLEAR     63  61  94 CALM      29.95S
PINOPOLIS      NOT AVBL
MONCKS CORNER  FAIR      59  59 100 CALM      29.95R
SUMMERVILLE    FAIR      63  59  88 CALM      29.95S
BEAUFORT MCAS  MOCLDY    68  60  75 E3        29.87S
BEAUFORT ARPT  FAIR      64  61  88 E6        29.93R
HILTON HEAD IS PTCLDY    64  61  88 CALM      29.94R
GEORGETOWN     NOT AVBL
WALTERBORO     PTCLDY    63  59  88 CALM      29.95R
ORANGEBURG     MOCLDY    66  49  54 NE5       29.95R
BARNWELL       FAIR      61  52  72 CALM      29.95S
AIKEN          FAIR      59  46  63 CALM      30.00R
MANNING        FAIR      59  59 100 CALM      29.95S
KINGSTREE      NOT AVBL
COLUMBIA       PTCLDY    66  43  43 CALM      29.96R
SUMTER         PTCLDY    61  46  56 N6        29.94R
FLORENCE       CLEAR     61  48  62 CALM      29.96R
MYRTLE BEACH   PTCLDY    63  54  72 N6        29.94S
N MYRTLE BEACH CLEAR     59  54  83 N5        29.94S

$$

GAZ063-065-086>088-099>101-113>116-118-119-134-136>141-150-310000-
...GEORGIA...

CITY           SKY/WX    TMP DP  RH WIND       PRES   REMARKS
SAVANNAH ARPT  MOCLDY    70  59  68 E6        29.92S
HUNTER AAF     PTCLDY    67  60  80 E5        29.90S
FORT STEWART   CLOUDY    67  58  71 CALM      29.90S
STATESBORO     NOT AVBL
SYLVANIA       CLEAR     66  63  87 CALM      29.94S
CLAXTON        FAIR      63  59  88 CALM      29.93R
THOMSON        CLEAR     57  54  88 CALM      30.01R
AUGUSTA-BUSH   CLEAR     62  45  53 N5        29.95R
AUGUSTA-DANIEL CLEAR     67  41  38 N3        29.96R
SWAINSBORO     FAIR      64  50  59 MISG      29.95R
VIDALIA        CLEAR     63  55  77 NE3       29.93S
ALMA           CLEAR     64  51  62 CALM      29.91S
WAYCROSS       CLEAR     67  56  67 CALM      29.91S
JESUP          FAIR      70  59  68 NE3       29.92R
BRUNSWICK      MOCLDY    66  63  88 E3        29.92R
SAINT SIMONS   MOCLDY    69  64  84 NE7       29.90S

$$

SCZ027-028-034-036>038-045-046-048>050-GAZ119-141-310000-
...LAKE AND SUPPLEMENTAL COASTAL OBSERVATIONS...

STATION/POSITION TIME  TEMP    WIND        PRES    WAVE   SWELL
                       AIR SEA DIR/SP/G            HT/PER HT/PER/DIR
                 (UTC) (F)     (DEG/KT/KT) (MB)    (FT/S) (FT/S/D)
UPR LAKE MARION  NOT AVBL
WINYAH BAY       2300   63     350/  2     1013.0S
LAKE MURRAY      2200   67      CALM  /  3 1013.9R
ACE BASIN NERRS  2300   65      60/  4     1013.0S
FORT PULASKI     2300   69      50/  7/  8 1013.3S
SAPELO ISLAND    NOT AVBL

$$

ANZ835-935-AMZ111-154-330-350-352-354-374-450-454-472-310000-
...C-MAN AND BUOY OBSERVATIONS...

STATION/POSITION TIME  TEMP    WIND        PRES    WAVE   SWELL
                       AIR SEA DIR/SP/G            HT/PER HT/PER/DIR
                 (UTC) (F)     (DEG/KT/KT) (MB)    (FT/S) (FT/S/D)
FOLLY BEACH CMAN 2300   63     350/  9/ 10 1014.3R
BUOY 41004       2300   69 77   20/ 16/ 17 1012.2F   4/ 5
BUOY 41008       2300   69 74   50/ 10/ 14 1012.8R   2/ 3   2/120/ 8
5E ST. MARYS GA  2200      77                N/A     1/ 8
FRYING PAN BUOY  2300   67 72   30/ 17/ 19 1013.6F   5/ 6
BUOY 41025       2300   65      10/ 19/ 25 1013.7R   4/ 5   2/ 20/ 8
CAPE LOOKOUT NC  2300   63      20/ 14/ 16 1014.1R
BUOY 41002       2152   74 78   80/  6/  8 1012.6F   3/ 5   3/300/ 5
BUOY 41010       2300   79 82  350/  4/  6 1012.2F   3/ 7   3/110/ 7
BUOY 41012       NOT AVBL
ST AUGUSTINE FL  2300   73     100/  3/  4 1012.9R
CAPERS NEARSHORE NOT AVBL
FRIPP NEARSHORE  NOT AVBL


$$



USA.gov is the U.S. government's official web portal to all federal, state and local government web resources and services.